Date String (YYYY-MM-DD hh:mm:ss) UTC,Instrument flags,Ambient pressure (hPa),Sample flow (lpm),Bypass flow (lpm),Sample temperature (°C),Ambient temperature (°C),ASC tube jacket temperature (°C),LED temperature (°C),Box temperature (°C),Sample RH (%),Mass concentration (μg/m³),Mass concentration (μg/m³)
DateTimeUTC,F1_M11,P_M11,Q1_M11,Q2_M11,T1_M11,T2_M11,T3_M11,T4_M11,T5_M11,U1_M11,X0_M11,X2_M11
2021-08-18 00:00:00,,0821.7,5.00,0.00,29.1,28.1,00.0,38.0,31.0,22.4,0033.58,0017.34
2021-08-18 00:01:00,,0821.7,5.01,0.00,29.1,26.6,00.0,38.0,30.6,22.5,0032.82,0017.23
2021-08-18 00:02:00,,0821.7,5.00,0.00,28.9,25.6,00.0,38.0,30.3,22.9,0033.43,0017.15
2021-08-18 00:03:00,,0821.6,5.01,0.00,28.8,25.9,00.0,38.0,30.3,22.8,0033.36,0017.15
2021-08-18 00:04:00,,0821.7,5.00,0.00,28.8,26.3,00.0,37.9,30.5,22.5,0031.86,0016.95
2021-08-18 00:05:00,,0821.7,5.00,0.00,28.8,26.8,00.0,37.9,30.6,22.5,0031.52,0016.85
2021-08-18 00:06:00,,0821.7,5.00,0.00,28.9,27.2,00.0,37.9,30.7,22.5,0031.17,0016.72
2021-08-18 00:07:00,,0821.7,5.01,0.00,28.9,27.5,00.0,37.9,30.9,22.5,0031.54,0016.61
2021-08-18 00:08:00,,0821.7,4.99,0.00,29.0,27.8,00.0,38.0,30.9,22.3,0031.40,0016.38
2021-08-18 00:09:00,,0821.8,5.00,0.00,29.1,28.1,00.0,38.0,31.0,21.9,0031.36,0016.13
2021-08-18 00:10:00,,0821.8,5.01,0.00,29.1,28.3,00.0,38.0,31.1,22.0,0031.09,0015.94
2021-08-18 00:11:00,,0821.7,4.99,0.00,29.2,27.8,00.0,38.1,31.0,21.8,0028.91,0015.67
2021-08-18 00:12:00,,0821.8,5.00,0.00,29.1,26.1,00.0,38.0,30.4,21.9,0028.15,0015.45
2021-08-18 00:13:00,,0821.7,5.01,0.00,28.9,25.6,00.0,38.0,30.3,22.2,0026.55,0015.27
2021-08-18 00:14:00,,0821.7,4.99,0.00,28.9,26.0,00.0,38.0,30.4,22.2,0025.30,0015.00
2021-08-18 00:15:00,,0821.7,5.00,0.00,28.9,26.5,00.0,38.0,30.5,22.1,0025.17,0014.83
2021-08-18 00:16:00,,0821.8,5.00,0.00,28.9,27.0,00.0,38.0,30.7,22.0,0025.09,0014.66
2021-08-18 00:17:00,,0821.8,5.00,0.00,28.9,27.3,00.0,38.0,30.8,21.9,0024.68,0014.50
2021-08-18 00:18:00,,0821.8,4.99,0.00,29.0,27.7,00.0,38.0,30.9,21.9,0024.31,0014.32
2021-08-18 00:19:00,,0821.8,5.00,0.00,29.1,27.9,00.0,38.0,31.0,21.9,0023.65,0014.23
2021-08-18 00:20:00,,0821.7,4.99,0.00,29.1,28.2,00.0,38.0,31.1,21.9,0023.97,0014.08
2021-08-18 00:21:00,,0821.8,5.00,0.00,29.2,28.3,00.0,38.1,31.2,21.4,0024.29,0013.95
2021-08-18 00:22:00,,0821.8,5.00,0.00,29.2,27.2,00.0,38.1,30.9,21.7,0024.54,0013.85
2021-08-18 00:23:00,,0821.7,5.00,0.00,29.0,25.7,00.0,38.1,30.4,21.7,0024.52,0013.77
2021-08-18 00:24:00,,0821.8,5.00,0.00,28.9,25.7,00.0,38.1,30.4,21.9,0024.09,0013.62
2021-08-18 00:25:00,,0821.8,5.01,0.00,28.9,26.2,00.0,38.0,30.5,21.9,0023.88,0013.50
2021-08-18 00:26:00,,0821.8,5.00,0.00,28.9,26.6,00.0,38.0,30.6,21.7,0023.09,0013.38
2021-08-18 00:27:00,,0821.8,5.00,0.00,28.9,27.1,00.0,38.0,30.7,21.8,0022.71,0013.28
2021-08-18 00:28:00,,0821.8,5.02,0.00,29.0,27.4,00.0,38.0,30.8,21.5,0022.70,0013.18
2021-08-18 00:29:00,,0821.8,4.99,0.00,29.1,27.7,00.0,38.0,31.0,21.5,0021.77,0013.06
2021-08-18 00:30:00,,0821.8,5.00,0.00,29.1,28.0,00.0,38.1,31.1,21.4,0021.49,0012.99
2021-08-18 00:31:00,,0821.8,5.00,0.00,29.2,28.2,00.0,38.1,31.1,21.3,0020.29,0012.94
2021-08-18 00:32:00,,0821.8,5.00,0.00,29.2,27.4,00.0,38.1,30.8,21.4,0018.54,0012.87
2021-08-18 00:33:00,,0821.8,5.00,0.00,29.0,25.7,00.0,38.1,30.3,21.5,0018.01,0012.83
2021-08-18 00:34:00,,0821.8,5.00,0.00,28.9,25.6,00.0,38.1,30.3,21.6,0017.98,0012.80
2021-08-18 00:35:00,,0821.8,5.01,0.00,28.9,26.1,00.0,38.0,30.4,21.6,0018.02,0012.72
2021-08-18 00:36:00,,0821.8,4.99,0.00,28.9,26.5,00.0,38.0,30.5,21.6,0018.00,0012.71
2021-08-18 00:37:00,,0821.9,5.01,0.00,28.9,27.0,00.0,38.0,30.7,21.6,0018.79,0012.74
2021-08-18 00:38:00,,0822.0,4.99,0.00,28.9,27.4,00.0,38.0,30.8,21.4,0019.52,0012.72
2021-08-18 00:39:00,,0822.0,5.01,0.00,29.0,27.7,00.0,38.0,31.0,21.2,0019.14,0012.70
2021-08-18 00:40:00,,0822.1,4.99,0.00,29.1,28.0,00.0,38.0,31.1,21.2,0019.42,0012.70
2021-08-18 00:41:00,,0822.1,5.00,0.00,29.2,28.2,00.0,38.1,31.2,21.1,0019.55,0012.69
2021-08-18 00:42:00,,0822.1,5.01,0.00,29.2,28.3,00.0,38.1,31.2,21.1,0019.44,0012.66
2021-08-18 00:43:00,,0822.1,5.00,0.00,29.2,26.8,00.0,38.1,30.7,21.2,0020.06,0012.69
2021-08-18 00:44:00,,0822.2,5.00,0.00,29.0,25.5,00.0,38.1,30.3,21.5,0020.96,0012.71
2021-08-18 00:45:00,,0822.2,5.00,0.00,28.9,25.8,00.0,38.1,30.4,21.6,0021.00,0012.68
2021-08-18 00:46:00,,0822.2,5.00,0.00,28.9,26.2,00.0,38.0,30.5,21.6,0021.07,0012.72
2021-08-18 00:47:00,,0822.3,5.00,0.00,28.9,26.7,00.0,38.0,30.6,21.8,0021.13,0012.75
2021-08-18 00:48:00,,0822.3,5.00,0.00,28.9,27.1,00.0,38.0,30.8,21.8,0020.66,0012.73
2021-08-18 00:49:00,,0822.3,5.00,0.00,29.0,27.5,00.0,38.0,30.9,21.7,0020.19,0012.74
2021-08-18 00:50:00,,0822.3,4.99,0.00,29.1,27.8,00.0,38.0,31.0,21.6,0020.06,0012.78
2021-08-18 00:51:00,,0822.3,5.01,0.00,29.1,28.0,00.0,38.1,31.1,21.4,0019.60,0012.83
2021-08-18 00:52:00,,0822.4,4.99,0.00,29.2,28.3,00.0,38.1,31.1,21.2,0019.51,0012.85
2021-08-18 00:53:00,,0822.3,5.00,0.00,29.2,28.0,00.0,38.1,31.0,21.2,0019.61,0012.90
2021-08-18 00:54:00,,0822.3,5.01,0.00,29.1,26.3,00.0,38.1,30.6,21.1,0019.12,0012.91
2021-08-18 00:55:00,,0822.4,5.00,0.00,29.0,25.6,00.0,38.1,30.4,20.8,0018.41,0012.93
2021-08-18 00:56:00,,0822.3,5.01,0.00,28.9,26.0,00.0,38.1,30.5,21.1,0018.82,0012.98
2021-08-18 00:57:00,,0822.3,5.00,0.00,28.9,26.4,00.0,38.0,30.6,21.1,0018.81,0013.03
2021-08-18 00:58:00,,0822.3,4.99,0.00,28.9,26.9,00.0,38.0,30.7,21.1,0018.61,0013.04
2021-08-18 00:59:00,,0822.3,5.01,0.00,29.0,27.3,00.0,38.0,30.8,21.1,0018.25,0013.06
